Flag for U.S.A. Weather past 2 weeks in Scottsdale, Arizona, U.S.A.

Now
95 °F

Sunny.


Feels Like: 95 °F
Forecast: 75 / 92 °F
Wind: No wind

Location: Scottsdale Airport

Current Time: Sep 19, 2014 at 5:13:19 PM

Latest Report: Sep 19, 2014 at 3:53 PM


Visibility: 10 mi

Pressure: 29.69 "Hg

Humidity: 31%

Dew point: 60 °F

Location of ScottsdaleLocation

Historic Weather in Scottsdale — Graph

°F

Scottsdale temperature yesterday

Maximum temperature yesterday: 93 °F (at 2:53 PM)
Minimum temperature yesterday: 76 °F (at 5:53 AM)
Average temperature yesterday: 85 °F

Past Weeks' High & Low Weather Summary

 TemperatureHumidityPressure
High102 °F (Sep 4, 3:53 PM)100% (Sep 8, 2:57 AM)29.97 "Hg (Sep 8, 2:57 AM)
Low70 °F (Sep 8, 2:57 AM)19% (Sep 12, 3:53 PM)29.57 "Hg (Sep 4, 4:53 PM)
Average87 °F48%29.78 "Hg
* Reported Sep 4 3:53 PM — Sep 19 3:53 PM, Scottsdale, Weather by CustomWeather, © 2014

Note: Actual official high and low records may vary slightly from our data, if they occured in-between our weather recording intervals... More about our weather records

Advertising

Scottsdale weather history for previous 24 hours

 ConditionsComfort  
Time TempWeatherWind HumidityBarometerVisibility
3:53 PM
Sep 19
95 °FSunny.No wind31%29.69 "Hg10 mi
2:53 PM94 °FSunny.6 mph35%29.71 "Hg10 mi
1:53 PM92 °FSunny.5 mph41%29.72 "Hg10 mi
12:53 PM91 °FPassing clouds.3 mph45%29.75 "Hg10 mi
11:53 AM90 °FScattered clouds.5 mph48%29.77 "Hg10 mi
10:53 AM87 °FSunny.No wind57%29.79 "Hg10 mi
9:53 AM86 °FSunny.No wind59%29.80 "Hg10 mi
8:59 AM82 °FSunny.6 mph66%29.88 "Hg10 mi
7:53 AM83 °FPartly sunny.No wind63%29.79 "Hg10 mi
6:53 AM80 °FPartly sunny.No wind69%29.77 "Hg10 mi
5:53 AM80 °FClear.No wind69%29.74 "Hg10 mi
4:53 AM80 °FPassing clouds.No wind67%29.73 "Hg10 mi
3:53 AM82 °FClear.No wind60%29.72 "Hg10 mi
2:53 AM82 °FClear.3 mph60%29.72 "Hg10 mi
1:53 AM83 °FOvercast.No wind61%29.72 "Hg10 mi
12:53 AM84 °FPassing clouds.No wind57%29.71 "Hg10 mi
11:53 PM
Sep 18
85 °FPassing clouds.3 mph53%29.71 "Hg10 mi
10:53 PM85 °FClear.No wind53%29.72 "Hg10 mi
9:53 PM86 °FPassing clouds.3 mph49%29.71 "Hg10 mi
8:53 PM87 °FPassing clouds.No wind46%29.70 "Hg10 mi
7:53 PM88 °FClear.No wind45%29.68 "Hg10 mi
6:53 PM90 °FClear.5 mph41%29.67 "Hg10 mi
5:53 PM91 °FSunny.No wind37%29.65 "Hg10 mi
Weather by CustomWeather, © 2014

See weather overviewHow to use our weather pages